FW8184 Weather Reports


Display with metric or nautical units.
time (UTC)temp
F
wind
direction
speed
MPH
gust
MPH
rain 1hr
in
rain 24hr
in
rain mn
in
humidity
%
barometer
mb
20260504110515 52 105 0.0 1.0 0.00 0.07 0.07 90 1005.1
20260504100515 52 0 0.0 1.0 0.00 0.07 0.07 89 1006.2
20260504081535 55 105 1.0 2.0 0.06 0.06 0.06 82 1006.6
20260504081021 55 0 1.0 2.0 0.01 0.01 0.01 79 1007.3
20260504080516 55 0 0.0 2.0 0.00 0.00 0.00 78 1006.7
20260504050518 56 0 0.0 0.0 0.00 0.00 0.00 76 1007.7
20260504045515 56 0 0.0 0.0 0.00 0.00 0.00 76 1007.7
20260504045017 57 0 0.0 0.0 0.00 0.00 0.00 75 1007.7
20260504044537 57 0 0.0 0.0 0.00 0.00 0.00 74 1007.8
20260504044016 57 0 0.0 0.0 0.00 0.00 0.00 73 1008.0
20260504043526 58 0 0.0 0.0 0.00 0.00 0.00 72 1008.1
20260504043037 58 0 0.0 0.0 0.00 0.00 0.00 73 1008.2
20260504042517 58 0 0.0 0.0 0.00 0.00 0.00 72 1008.0
20260504042017 58 0 0.0 0.0 0.00 0.00 0.00 73 1008.1
20260504041533 59 0 0.0 0.0 0.00 0.00 0.00 73 1008.2
20260504041015 59 0 0.0 0.0 0.00 0.00 0.00 73 1008.2
20260504040517 59 0 0.0 0.0 0.00 0.00 0.00 72 1008.3
20260504040040 59 0 0.0 0.0 0.00 0.00 0.00 72 1008.3
20260504035521 59 0 0.0 0.0 0.00 0.00 0.00 72 1008.3
20260504035018 59 0 0.0 0.0 0.00 0.00 0.00 71 1008.4
20260504034532 60 0 0.0 0.0 0.00 0.00 0.00 72 1008.4
20260504034016 60 0 0.0 0.0 0.00 0.00 0.00 71 1008.5
20260504033519 60 0 0.0 0.0 0.00 0.00 0.00 71 1008.6
20260504033049 60 0 0.0 0.0 0.00 0.00 0.00 70 1008.8
20260504032519 60 0 0.0 0.0 0.00 0.00 0.00 70 1008.8
20260504032016 60 0 0.0 0.0 0.00 0.00 0.00 70 1008.6
20260504031533 60 0 0.0 0.0 0.00 0.00 0.00 70 1008.5
20260504031019 61 0 0.0 0.0 0.00 0.00 0.00 69 1008.6
20260504030518 61 0 0.0 1.0 0.00 0.00 0.00 68 1008.8
20260504030032 60 0 0.0 1.0 0.00 0.00 0.00 68 1008.8
20260504025520 60 0 0.0 1.0 0.00 0.00 0.00 69 1008.6
20260504025018 61 0 0.0 1.0 0.00 0.00 0.00 70 1008.7
20260504024543 61 134 0.0 2.0 0.00 0.00 0.00 70 1008.7
20260504024018 61 0 0.0 2.0 0.00 0.00 0.00 69 1008.5
20260504023518 60 117 0.0 1.0 0.00 0.00 0.00 70 1008.6
20260504023037 61 0 0.0 0.0 0.00 0.00 0.00 70 1008.7
20260504022521 61 0 0.0 0.0 0.00 0.00 0.00 70 1008.8
20260504022017 61 0 0.0 0.0 0.00 0.00 0.00 70 1008.8
20260504021535 61 0 0.0 0.0 0.00 0.00 0.00 69 1008.8
20260504021014 61 0 0.0 0.0 0.00 0.00 0.00 68 1008.7
20260504020517 61 0 0.0 0.0 0.00 0.00 0.00 68 1008.5
20260504020033 62 0 0.0 1.0 0.00 0.00 0.00 66 1008.6
20260504015520 62 0 0.0 1.0 0.00 0.00 0.00 66 1008.5
20260504015021 62 112 0.0 2.0 0.00 0.00 0.00 66 1008.6
20260504014533 62 112 1.0 2.0 0.00 0.00 0.00 66 1008.6
20260504014022 62 129 0.0 1.0 0.00 0.00 0.00 66 1008.7
20260504013521 62 0 0.0 1.0 0.00 0.00 0.00 65 1008.6
20260504013037 63 127 0.0 1.0 0.00 0.00 0.00 66 1008.7
20260504012518 63 127 0.0 1.0 0.00 0.00 0.00 64 1008.7
20260504012023 63 128 0.0 1.0 0.00 0.00 0.00 64 1008.5
20260504011533 64 0 0.0 1.0 0.00 0.00 0.00 64 1008.7
20260504011017 64 0 0.0 1.0 0.00 0.00 0.00 63 1008.6
20260504010518 64 128 0.0 2.0 0.00 0.00 0.00 62 1008.5
20260504010036 65 128 1.0 2.0 0.00 0.00 0.00 62 1008.0
20260504005518 65 0 0.0 0.0 0.00 0.00 0.00 60 1008.6
20260504005015 65 0 0.0 1.0 0.00 0.00 0.00 60 1008.5
20260504004534 66 0 0.0 1.0 0.00 0.00 0.00 60 1008.3
20260504004018 66 301 0.0 0.0 0.00 0.00 0.00 60 1008.4
20260504003518 67 0 0.0 1.0 0.00 0.00 0.00 58 1008.4
20260504003041 67 0 0.0 1.0 0.00 0.00 0.00 57 1008.1
20260504002518 67 301 0.0 1.0 0.00 0.00 0.00 56 1008.0
20260504002018 68 302 0.0 1.0 0.00 0.00 0.00 57 1008.1
20260504001532 68 0 0.0 2.0 0.00 0.00 0.00 52 1008.5
20260504001021 68 300 1.0 2.0 0.00 0.00 0.00 55 1008.4
20260504000518 68 139 0.0 1.0 0.00 0.00 0.00 54 1008.5
20260504000042 69 139 0.0 1.0 0.00 0.00 0.00 55 1008.1
20260503235518 69 242 0.0 1.0 0.00 0.00 0.00 53 1008.3
20260503235018 70 231 0.0 2.0 0.00 0.00 0.00 54 1008.1
20260503234533 70 231 0.0 2.0 0.00 0.00 0.00 52 1007.9
20260503234018 70 96 1.0 6.0 0.00 0.00 0.00 51 1007.6
20260503233517 70 134 1.0 6.0 0.00 0.00 0.00 47 1007.7
20260503233038 70 258 0.0 6.0 0.00 0.00 0.00 47 1008.3
20260503232516 71 307 1.0 4.0 0.00 0.00 0.00 49 1008.5
20260503232015 71 286 1.0 3.0 0.00 0.00 0.00 49 1008.3
20260503231537 71 240 0.0 5.0 0.00 0.00 0.00 46 1008.2
20260503231022 71 243 1.0 5.0 0.00 0.00 0.00 47 1008.3
20260503230518 72 235 2.0 6.0 0.00 0.00 0.00 46 1008.5
20260503230035 72 207 2.0 6.0 0.00 0.00 0.00 47 1009.0
20260503225518 72 357 3.0 6.0 0.00 0.00 0.00 47 1009.2
20260503225018 72 314 2.0 6.0 0.00 0.00 0.00 49 1008.9
20260503224536 72 319 2.0 6.0 0.00 0.00 0.00 47 1008.4
20260503224018 72 245 2.0 7.0 0.00 0.00 0.00 46 1008.7
20260503223517 72 274 3.0 7.0 0.00 0.00 0.00 45 1008.5
20260503223033 72 288 3.0 7.0 0.00 0.00 0.00 46 1008.4
20260503222516 72 41 2.0 7.0 0.00 0.00 0.00 46 1008.2
20260503222016 73 261 3.0 7.0 0.00 0.00 0.00 44 1008.1
20260503221535 73 244 1.0 5.0 0.00 0.00 0.00 45 1008.0
20260503221016 73 238 2.0 5.0 0.00 0.00 0.00 45 1008.0
20260503220518 73 273 1.0 4.0 0.00 0.00 0.00 48 1008.4
20260503220037 73 236 1.0 8.0 0.00 0.00 0.00 44 1008.3
20260503215515 73 252 1.0 8.0 0.00 0.00 0.00 44 1008.5
20260503215019 73 259 2.0 8.0 0.00 0.00 0.00 43 1008.5
20260503214533 73 245 2.0 9.0 0.00 0.00 0.00 43 1008.6
20260503214018 73 223 3.0 9.0 0.00 0.00 0.00 41 1008.6
20260503213518 73 210 2.0 7.0 0.00 0.00 0.00 42 1008.5
20260503213034 73 219 2.0 7.0 0.00 0.00 0.00 42 1008.4
20260503212519 73 223 4.0 6.0 0.00 0.00 0.00 40 1008.3
20260503212015 73 240 2.0 6.0 0.00 0.00 0.00 41 1008.6
20260503211533 73 244 2.0 6.0 0.00 0.00 0.00 41 1008.7
20260503211016 73 226 3.0 7.0 0.00 0.00 0.00 41 1008.8
20260503210518 74 214 2.0 7.0 0.00 0.00 0.00 42 1008.8
20260503210037 74 138 2.0 8.0 0.00 0.00 0.00 41 1008.7
20260503205518 73 195 2.0 8.0 0.00 0.00 0.00 40 1008.9
20260503205017 73 333 2.0 8.0 0.00 0.00 0.00 41 1009.0
20260503204537 73 200 1.0 5.0 0.00 0.00 0.00 40 1009.0
20260503204016 73 245 2.0 6.0 0.00 0.00 0.00 40 1009.1
20260503203521 73 177 1.0 11.0 0.00 0.00 0.00 41 1009.2
20260503203041 73 226 3.0 11.0 0.00 0.00 0.00 39 1009.2
20260503202518 73 268 2.0 7.0 0.00 0.00 0.00 41 1009.3
20260503202022 73 174 3.0 5.0 0.00 0.00 0.00 40 1009.3
20260503201533 73 253 1.0 5.0 0.00 0.00 0.00 40 1009.6
20260503201019 72 188 2.0 9.0 0.00 0.00 0.00 40 1009.5
20260503200519 71 194 3.0 9.0 0.00 0.00 0.00 40 1009.7
20260503200034 71 172 3.0 8.0 0.00 0.00 0.00 40 1009.9
20260503195518 70 240 3.0 6.0 0.00 0.00 0.00 39 1009.9
20260503195018 70 277 3.0 6.0 0.00 0.00 0.00 40 1009.9
20260503194533 70 181 3.0 11.0 0.00 0.00 0.00 41 1010.1
20260503194018 70 225 3.0 11.0 0.00 0.00 0.00 40 1010.3
20260503193521 69 228 3.0 7.0 0.00 0.00 0.00 40 1010.5
20260503193036 69 236 4.0 9.0 0.00 0.00 0.00 39 1010.3
20260503192517 69 124 4.0 9.0 0.00 0.00 0.00 39 1010.5
20260503192018 69 250 2.0 6.0 0.00 0.00 0.00 40 1010.3
20260503191532 69 59 2.0 6.0 0.00 0.00 0.00 40 1010.4
20260503191018 68 105 3.0 6.0 0.00 0.00 0.00 40 1010.7
20260503190518 68 100 2.0 7.0 0.00 0.00 0.00 40 1010.8
20260503190034 68 205 2.0 9.0 0.00 0.00 0.00 40 1010.6
20260503185517 68 231 4.0 9.0 0.00 0.00 0.00 40 1010.3
20260503185017 68 236 2.0 9.0 0.00 0.00 0.00 39 1010.2
20260503184544 68 245 3.0 9.0 0.00 0.00 0.00 39 1010.2
20260503184015 68 282 2.0 14.0 0.00 0.00 0.00 40 1010.4
20260503183518 68 220 3.0 14.0 0.00 0.00 0.00 39 1011.0
20260503183034 68 205 3.0 6.0 0.00 0.00 0.00 39 1011.1
20260503182519 69 199 2.0 9.0 0.00 0.00 0.00 39 1011.1
20260503182015 68 199 3.0 9.0 0.00 0.00 0.00 39 1011.3
20260503181534 69 229 3.0 9.0 0.00 0.00 0.00 39 1011.0
20260503181020 68 203 3.0 9.0 0.00 0.00 0.00 40 1011.3
20260503180519 68 264 2.0 8.0 0.00 0.00 0.00 38 1011.4
20260503180037 69 229 3.0 8.0 0.00 0.00 0.00 37 1011.1
20260503175014 69 247 3.0 9.0 0.00 0.00 0.00 37 1011.8
20260503174534 69 187 3.0 9.0 0.00 0.00 0.00 37 1011.7
20260503174021 69 158 3.0 10.0 0.00 0.00 0.00 38 1011.7
20260503173518 70 221 3.0 11.0 0.00 0.00 0.00 35 1011.8
20260503173037 70 207 4.0 15.0 0.00 0.00 0.00 37 1011.9
20260503172519 70 128 3.0 15.0 0.00 0.00 0.00 38 1012.0
20260503172018 69 281 3.0 9.0 0.00 0.00 0.00 39 1012.1
20260503171547 69 185 3.0 9.0 0.00 0.00 0.00 39 1012.4
20260503171018 69 229 3.0 17.0 0.00 0.00 0.00 38 1012.5
20260503170516 68 143 4.0 17.0 0.00 0.00 0.00 40 1012.2
20260503150516 63 226 2.0 7.0 0.00 0.00 0.00 46 1014.8
20260503131018 49 240 33.0 79.0 0.00 0.00 0.00 68 1016.2
20260503130518 49 218 0.0 69.0 0.00 0.00 0.00 70 1016.2